Temperature
13 13 13 13 14 14 14 14 14 14 14 14 14 14 14 14 14 14 14 15 15 15 15 15 15 15 15 15 15 14 14 14 14 14 14 14 14 15 15 15 15 15 15
13 13 13 13 13 14 14 14 14 14 14 14 14 14 14 14 14 14 14 15 15 15 15 15 15 15 15 15 15 14 14 14 14 14 14 14 14 14 14 14 14 14 14
13 13 13 13 14 14 14 14 14 14 14 14 14 14 14 14 14 14 14 15 15 15 15 15 15 15 15 15 15 14 14 14 14 14 14 14 14 14 14 14 14 14 14
13 13 13 13 13 14 14 14 14 14 14 14 14 14 14 14 14 14 14 14 15 15 15 15 15 15 15 15 15 15 14 14 14 14 14 14 14 14 14 14 14 14 14
12 13 13 13 13 13 13 13 13 13 14 14 14 14 14 14 14 14 14 14 14 15 15 15 15 15 15 15 15 15 14 14 14 14 14 14 13 13 13 13 13 13 13
12 12 12 12 12 12 12 12 13 13 13 13 13 13 13 14 14 14 14 14 14 14 14 14 14 14 14 14 14 14 14 14 14 14 14 13 13 13 13 13 13 13 13
12 12 12 12 12 12 12 12 12 12 12 12 13 13 13 13 13 13 13 14 14 14 14 14 14 14 14 14 14 14 14 14 14 14 14 13 13 13 13 13 13 13 12
12 12 12 12 12 12 12 12 11 11 12 12 12 12 12 12 12 13 13 13 13 13 13 13 14 14 14 14 14 14 14 14 14 14 13 13 13 13 13 13 13 12 12
12 12 12 12 12 11 11 11 11 11 11 11 11 11 12 12 12 12 12 12 12 12 13 13 13 13 13 13 14 14 14 14 13 13 13 13 13 13 13 13 12 12 12
12 11 11 11 11 11 11 11 11 11 11 11 11 11 11 11 11 11 11 12 12 12 12 12 12 13 13 13 13 13 13 13 13 13 13 13 13 13 13 12 12 12 12
12 12 11 11 11 11 11 11 11 11 11 10 11 11 11 11 11 11 11 11 11 11 12 12 12 12 13 13 13 13 13 13 13 13 13 12 12 12 12 12 12 12 12
12 12 11 11 11 11 11 11 11 11 11 10 10 10 10 10 10 10 10 11 11 11 11 11 11 12 12 12 12 12 12 12 12 12 12 12 12 12 12 12 11 11 11
12 12 11 11 11 11 11 11 11 11 11 10 10 10 10 10 10 10 10 10 10 11 11 11 11 11 11 12 12 12 12 12 12 12 12 11 11 11 11 11 11 11 11
12 12 11 11 11 11 11 11 11 11 10 10 10 10 9 9 10 10 10 10 10 10 10 10 11 11 11 11 11 11 11 11 11 11 11 11 11 11 11 10 10 10 10
12 12 11 11 11 11 11 11 10 10 10 10 9 9 9 9 9 9 9 9 10 10 10 10 10 10 11 11 11 11 11 11 11 10 10 10 10 10 10 10 10 10 10
12 12 11 11 11 11 11 10 10 10 10 9 9 9 9 8 9 9 9 9 9 9 10 10 10 10 10 10 10 10 10 10 10 10 10 10 10 10 10 9 9 9 9
12 12 11 11 11 11 11 10 10 10 9 9 9 9 8 8 8 9 9 9 9 10 10 10 10 9 9 9 9 9 9 9 9 9 9 9 9 9 9 9 9 9 9
12 12 12 11 11 11 11 11 10 10 10 9 9 9 8 8 8 8 8 9 9 9 9 9 9 9 9 9 9 9 9 9 9 9 9 9 8 8 8 8 8 8 8
13 12 12 11 11 11 11 11 11 10 10 9 9 9 8 8 8 8 8 9 9 9 9 9 9 9 9 9 9 8 8 8 8 8 8 8 8 8 8 8 8 7 7
13 12 12 12 12 11 11 11 11 10 10 10 9 9 9 8 8 9 9 9 9 9 9 9 9 9 9 8 8 8 8 8 8 8 8 8 7 7 7 7 7 7 7
13 13 12 12 12 11 11 11 11 10 10 10 9 9 9 9 9 9 9 9 9 9 9 9 9 9 9 8 8 8 8 8 8 8 7 7 7 7 7 7 7 7 6
13 13 13 12 12 12 11 11 11 11 10 10 10 9 9 9 9 9 9 9 9 9 9 9 9 9 9 9 8 8 8 8 8 8 7 7 7 7 7 7 7 6 6
13 13 13 13 12 12 12 11 11 11 11 10 10 10 9 9 9 9 9 9 9 9 9 9 9 9 9 9 9 9 9 8 8 8 7 7 7 7 7 7 7 6 6
14 13 13 13 13 12 12 12 12 11 11 11 10 10 10 10 10 10 10 10 10 10 10 10 9 9 9 9 9 9 9 9 8 8 8 7 7 7 7 7 7 6 6
14 14 13 13 13 13 12 12 12 12 11 11 11 11 10 10 10 10 10 10 10 10 10 10 10 10 10 10 9 9 9 9 9 8 8 8 7 7 7 7 7 6 6
14 14 14 13 13 13 13 12 12 12 12 12 11 11 11 10 10 10 10 10 10 10 10 10 10 10 10 10 10 10 9 9 9 9 8 8 8 7 7 7 7 6 6
Wind_Speed
8 7 7 7 6 6 5 5 4 3 2 2 1 1 1 2 1 1 2 2 2 3 3 4 5 4 4 3 3 3 4 4 5 3 2 2 2 3 3 6 10 10 12
7 7 7 6 6 6 5 5 4 3 3 3 2 3 2 2 2 1 1 1 3 3 3 4 4 3 4 3 3 3 3 4 4 4 2 2 4 4 3 4 5 8 9
7 8 8 8 8 7 6 5 6 5 4 4 4 4 4 4 3 2 2 1 1 2 2 3 4 4 4 3 3 3 2 2 3 3 3 2 2 2 2 2 3 2 5
8 9 9 9 8 8 7 7 6 6 5 5 6 5 4 3 3 3 2 2 2 1 1 1 3 5 5 4 3 3 2 2 2 2 2 2 2 2 1 2 3 2 3
9 10 9 9 9 9 9 9 9 9 9 8 7 7 6 5 5 4 3 2 2 3 2 1 1 3 5 4 3 4 3 2 1 1 0 1 1 1 1 1 2 2 2
9 9 9 9 10 9 9 8 9 9 8 8 8 8 8 7 9 9 5 3 3 3 3 2 1 2 2 2 3 4 5 4 3 2 1 1 2 1 1 1 1 0 1
8 9 9 9 9 9 9 9 9 8 8 9 8 8 7 9 13 11 9 4 3 2 2 1 1 2 2 2 1 2 2 2 4 4 2 1 1 1 0 0 0 1 1
7 8 8 8 8 8 9 8 8 6 7 7 8 8 7 11 16 14 11 7 5 4 3 2 2 2 2 2 2 2 1 1 0 2 2 1 1 1 1 1 1 1 1
7 7 7 7 8 8 8 7 6 6 7 6 6 8 8 10 16 15 11 5 5 5 4 4 3 3 3 4 4 4 2 2 2 4 4 3 3 3 3 3 3 3 2
5 5 5 6 7 8 7 7 6 6 6 6 8 8 8 8 15 16 11 5 5 4 4 4 5 5 5 4 4 5 4 1 2 3 4 4 5 5 5 3 2 2 1
4 6 6 6 7 7 7 7 7 7 7 8 8 8 8 10 13 16 13 5 4 4 4 4 4 6 7 6 5 4 3 4 3 4 4 4 4 4 4 3 2 2 2
5 6 7 7 7 7 8 8 7 7 8 7 7 7 7 8 10 13 15 11 7 4 3 3 4 8 9 9 6 7 8 7 5 5 5 4 4 4 3 4 6 6 5
6 6 6 7 7 7 7 7 7 7 6 6 6 7 6 7 9 15 14 14 12 6 5 8 10 11 10 9 11 11 8 6 5 5 5 3 3 3 3 3 5 7 9
6 5 5 6 6 7 6 6 6 6 6 6 6 6 6 6 7 8 7 7 9 8 7 9 12 14 11 11 10 9 7 6 5 5 4 3 4 5 5 4 4 3 5
6 4 4 4 5 5 5 5 5 4 4 3 3 4 5 6 8 10 8 6 6 6 6 7 8 8 8 8 8 8 7 7 6 5 5 5 5 5 5 4 4 5 5
5 4 3 3 3 3 4 3 6 4 6 7 6 4 4 6 9 12 14 14 13 11 9 8 8 8 8 7 7 7 7 6 5 5 5 5 5 5 5 5 5 5 5
5 4 3 4 4 3 3 2 1 3 5 6 7 8 9 10 11 11 12 14 14 12 9 8 7 7 6 6 6 6 5 5 5 5 5 5 5 5 5 5 5 5 5
4 4 4 3 4 4 4 3 2 1 1 3 4 7 8 10 12 11 10 9 9 8 6 6 6 6 6 6 5 5 5 5 5 5 5 5 5 4 5 5 4 4 4
4 3 3 2 2 3 3 3 3 3 2 1 2 4 6 7 10 11 9 6 5 5 5 5 5 5 5 5 4 4 5 5 5 5 5 5 4 4 4 4 4 6 4
3 5 4 2 2 2 2 3 3 3 3 2 1 1 2 3 4 4 5 4 4 4 4 4 4 4 4 4 4 4 5 5 5 5 4 4 4 4 4 5 4 4 3
3 4 4 2 2 3 3 4 4 4 4 3 2 2 3 3 2 2 2 2 3 2 2 2 3 3 4 3 3 4 5 4 4 4 4 3 3 3 3 4 4 4 3
3 3 3 3 3 3 4 4 5 5 5 5 3 2 4 3 2 2 2 1 1 1 1 2 2 2 1 2 2 3 3 3 4 4 4 3 3 3 3 3 4 3 4
3 4 4 4 4 5 4 4 5 5 5 5 5 4 3 3 3 3 3 2 2 1 2 2 2 1 2 3 3 3 2 1 2 2 2 2 3 3 3 3 3 3 4
2 3 4 4 5 5 5 5 5 5 6 6 5 5 5 5 4 5 4 3 3 3 3 3 3 3 4 3 3 2 1 1 2 1 1 2 2 2 3 3 3 3 3
3 3 4 5 5 6 6 5 5 6 6 6 6 6 5 5 5 5 5 4 4 4 4 5 4 5 5 4 3 2 2 2 2 1 3 3 3 3 2 2 2 2 2
4 4 4 4 5 6 6 6 6 6 6 6 6 6 6 6 6 6 5 5 4 4 5 6 7 7 6 4 3 2 2 2 2 3 5 4 3 3 3 3 3 3 3
Wind_Direction
28 33 40 41 46 56 59 54 57 64 59 55 58 40 341 309 292 214 210 202 191 211 204 194 205 190 187 191 182 176 179 176 213 260 260 255 241 233 203 206 215 220 227
22 32 37 37 43 50 47 37 34 33 36 40 45 45 28 16 18 5 261 210 196 208 212 206 216 200 194 193 184 190 192 191 197 239 266 251 241 234 221 216 218 222 225
23 31 34 30 32 36 32 28 31 34 39 43 55 60 49 43 35 15 346 351 309 233 215 203 204 185 194 192 183 186 195 192 191 210 251 262 263 246 225 240 239 243 242
27 33 33 29 30 33 32 31 32 36 45 50 58 64 64 60 46 26 20 29 2 332 293 195 183 174 179 174 167 172 164 159 173 194 243 277 274 271 207 241 263 248 254
36 37 33 30 33 37 40 42 43 50 58 57 57 51 48 50 37 25 24 39 31 32 31 49 160 165 172 166 159 162 149 138 125 127 228 315 304 291 249 238 246 274 266
39 35 32 36 39 39 40 44 48 52 56 60 59 53 46 39 31 31 27 28 46 53 33 21 81 107 136 152 152 157 157 153 157 151 166 232 282 273 266 231 213 110 302
39 35 34 38 39 35 42 47 48 49 54 56 53 49 42 28 34 35 38 44 49 59 63 57 81 79 95 92 101 114 124 150 164 154 161 208 244 263 219 97 156 167 236
39 35 34 38 37 33 39 42 41 43 49 51 47 40 36 31 34 35 39 42 49 47 46 66 91 74 89 121 123 118 103 9 166 147 158 188 215 217 150 140 132 85 46
40 38 36 41 41 37 35 31 31 42 44 43 41 38 35 23 29 34 41 39 51 44 38 46 67 72 66 115 124 122 99 30 56 113 123 103 77 86 98 81 62 61 38
42 47 47 48 48 42 37 36 36 47 46 46 43 36 32 21 24 32 38 43 49 40 33 31 43 55 65 93 120 128 125 121 90 86 68 53 46 47 56 74 101 87 76
62 59 51 50 55 50 45 42 43 48 48 45 42 33 26 19 18 25 33 40 45 44 39 28 22 42 62 73 87 103 121 129 106 97 78 58 44 38 31 35 56 99 98
82 69 58 49 52 53 51 44 40 43 45 36 32 26 17 11 13 17 29 38 46 57 42 22 24 48 61 62 65 79 92 96 95 88 77 61 50 36 28 37 53 62 68
97 84 75 65 53 49 52 48 41 37 42 34 31 28 13 6 8 17 25 34 39 53 51 53 58 57 58 56 54 63 71 79 85 85 78 61 42 35 40 46 47 61 57
118 111 96 83 66 51 47 47 50 40 37 36 33 24 11 8 8 6 11 24 33 47 50 51 57 58 58 53 51 52 54 64 79 79 75 58 43 43 41 40 50 49 53
126 128 114 102 96 76 61 48 50 39 35 43 28 16 16 13 2 18 34 33 38 49 60 56 52 51 52 49 47 47 45 48 54 52 61 61 53 51 41 35 50 58 64
126 137 141 136 126 116 104 66 32 31 32 44 46 40 11 20 31 44 47 47 50 58 68 64 58 54 54 50 50 46 42 41 41 51 57 60 60 59 53 47 56 68 68
142 151 154 158 166 172 166 145 88 360 11 26 31 35 39 39 47 52 55 52 46 54 66 63 58 53 51 50 49 50 43 33 39 50 57 56 59 59 60 57 60 66 63
146 149 149 164 177 185 192 190 177 161 19 350 1 20 34 44 50 54 56 59 49 47 55 58 53 47 47 47 46 45 43 39 42 46 48 50 54 61 61 59 60 70 69
153 156 156 165 172 172 172 165 161 157 133 52 13 15 31 50 50 50 54 65 68 58 52 50 46 44 43 44 45 46 47 45 42 43 43 45 50 62 63 61 66 68 71
185 188 174 168 166 159 156 149 144 146 143 132 103 27 21 55 52 39 44 60 72 71 63 56 46 44 40 42 49 51 49 44 39 42 38 42 49 62 70 68 68 70 66
201 210 197 171 177 178 169 167 168 166 168 177 204 216 155 118 111 95 80 76 88 93 88 73 54 43 39 44 56 60 59 44 35 35 37 42 54 65 68 71 68 68 70
205 216 213 206 207 197 185 178 176 180 185 189 206 205 159 133 140 141 143 138 131 128 128 110 80 47 39 65 82 79 67 46 27 22 31 44 61 72 77 73 67 62 69
223 227 224 223 213 207 195 189 188 191 196 199 197 193 187 182 180 181 186 185 171 157 143 128 110 86 80 88 90 100 101 52 348 355 37 55 65 76 84 83 80 76 66
245 236 226 222 213 210 210 211 205 203 202 200 198 195 196 196 193 191 189 186 181 183 176 164 161 158 143 125 106 96 74 359 344 359 65 109 103 94 89 85 80 83 81
269 254 240 224 216 216 218 219 215 210 206 203 199 197 195 192 192 190 187 186 186 192 189 178 170 162 158 150 135 105 56 31 28 106 124 119 119 118 110 103 89 77 82
273 263 250 234 222 217 215 218 218 214 210 208 201 195 193 193 194 192 187 185 189 193 191 191 188 182 174 164 147 114 71 52 78 129 136 123 115 120 123 113 109 91 91
Height
1507 1506 1504 1503 1503 1503 1503 1503 1504 1504 1505 1506 1507 1509 1510 1511 1513 1515 1516 1518 1519 1520 1521 1522 1522 1523 1523 1524 1525 1525 1525 1526 1526 1527 1527 1527 1528 1529 1530 1531 1532 1533 1535
1511 1509 1508 1507 1506 1506 1506 1506 1506 1507 1507 1508 1509 1510 1510 1512 1513 1515 1516 1517 1518 1519 1520 1521 1521 1522 1522 1523 1523 1523 1523 1523 1524 1523 1524 1524 1524 1525 1526 1526 1527 1528 1529
1514 1512 1511 1510 1509 1509 1509 1509 1509 1509 1509 1510 1510 1511 1512 1513 1514 1515 1516 1517 1518 1518 1519 1520 1520 1521 1521 1521 1521 1521 1521 1522 1522 1521 1521 1521 1521 1522 1522 1522 1523 1524 1525
1517 1515 1514 1513 1512 1511 1511 1511 1510 1510 1511 1511 1511 1512 1513 1513 1514 1514 1515 1516 1517 1518 1518 1519 1519 1520 1520 1520 1520 1520 1520 1520 1520 1520 1519 1519 1519 1519 1519 1519 1519 1520 1520
1521 1519 1518 1517 1516 1514 1513 1513 1512 1512 1512 1512 1512 1512 1513 1513 1513 1514 1514 1515 1515 1516 1517 1517 1518 1519 1519 1519 1519 1519 1519 1519 1519 1518 1518 1518 1517 1517 1516 1516 1516 1516 1516
1525 1523 1522 1521 1519 1518 1517 1516 1515 1514 1513 1513 1513 1513 1512 1512 1512 1513 1513 1513 1514 1514 1515 1516 1517 1517 1518 1519 1519 1519 1519 1519 1518 1518 1518 1517 1516 1516 1515 1514 1514 1514 1514
1529 1528 1526 1524 1522 1521 1520 1518 1517 1516 1515 1514 1514 1513 1513 1512 1512 1512 1512 1512 1512 1513 1513 1514 1515 1516 1517 1518 1518 1518 1519 1519 1519 1518 1518 1517 1516 1515 1514 1513 1513 1513 1512
1533 1531 1530 1528 1526 1524 1523 1521 1520 1519 1517 1516 1515 1514 1513 1513 1512 1511 1510 1510 1510 1511 1511 1512 1513 1514 1515 1516 1517 1518 1518 1518 1518 1518 1517 1517 1516 1515 1514 1513 1513 1512 1512
1537 1535 1533 1531 1529 1527 1525 1524 1523 1521 1520 1518 1517 1516 1515 1513 1512 1511 1510 1510 1509 1510 1510 1511 1511 1512 1513 1514 1515 1516 1517 1517 1517 1517 1517 1517 1516 1515 1514 1514 1513 1513 1512
1540 1538 1536 1534 1532 1530 1528 1527 1525 1524 1522 1521 1519 1518 1516 1514 1513 1512 1511 1510 1509 1509 1509 1510 1510 1511 1511 1512 1514 1515 1516 1516 1517 1517 1517 1517 1516 1515 1515 1514 1514 1513 1513
1544 1541 1539 1537 1534 1533 1531 1530 1528 1526 1525 1523 1521 1519 1518 1516 1514 1512 1511 1510 1510 1509 1509 1509 1509 1510 1510 1511 1512 1513 1515 1516 1516 1516 1517 1516 1516 1516 1515 1515 1514 1514 1514
1546 1544 1542 1539 1537 1536 1534 1533 1531 1529 1527 1525 1524 1521 1519 1518 1516 1514 1512 1511 1510 1510 1509 1509 1509 1510 1510 1511 1512 1513 1514 1515 1516 1516 1516 1516 1516 1516 1516 1516 1515 1515 1515
1548 1546 1545 1543 1541 1539 1537 1536 1534 1532 1530 1528 1526 1524 1522 1520 1518 1516 1514 1513 1512 1511 1510 1510 1510 1511 1511 1511 1513 1514 1515 1515 1516 1516 1516 1516 1516 1516 1517 1516 1516 1516 1516
1550 1549 1547 1546 1544 1543 1541 1539 1538 1536 1533 1531 1529 1526 1524 1522 1520 1519 1517 1515 1514 1513 1513 1513 1512 1513 1513 1513 1514 1515 1515 1516 1516 1517 1517 1517 1517 1517 1517 1517 1517 1517 1517
1552 1551 1550 1548 1547 1546 1544 1543 1541 1539 1537 1534 1532 1530 1527 1525 1523 1522 1520 1518 1517 1516 1516 1516 1515 1515 1515 1516 1516 1516 1517 1517 1517 1518 1518 1518 1518 1518 1518 1518 1518 1518 1517
1553 1552 1551 1550 1549 1548 1547 1545 1544 1542 1539 1537 1535 1533 1530 1529 1527 1525 1523 1522 1521 1520 1519 1518 1518 1518 1518 1518 1518 1518 1519 1519 1519 1519 1519 1519 1519 1519 1519 1518 1518 1518 1517
1554 1553 1553 1552 1551 1550 1549 1548 1546 1545 1542 1540 1538 1536 1533 1531 1530 1528 1527 1525 1524 1523 1522 1521 1521 1521 1521 1521 1521 1521 1521 1521 1521 1521 1520 1520 1520 1520 1519 1519 1519 1518 1518
1555 1554 1554 1553 1552 1552 1551 1549 1548 1546 1544 1542 1540 1538 1536 1534 1532 1531 1529 1529 1527 1526 1525 1524 1524 1523 1523 1523 1523 1522 1522 1522 1522 1522 1521 1521 1521 1521 1520 1520 1519 1519 1518
1556 1555 1554 1554 1553 1553 1552 1551 1549 1548 1546 1544 1542 1540 1538 1536 1535 1533 1532 1530 1529 1528 1527 1526 1526 1525 1525 1525 1524 1524 1524 1523 1523 1523 1522 1522 1522 1521 1521 1520 1520 1520 1519
1556 1555 1555 1554 1554 1553 1552 1551 1550 1549 1547 1545 1543 1541 1540 1538 1536 1535 1533 1532 1531 1530 1529 1528 1527 1527 1526 1526 1525 1525 1524 1524 1524 1523 1523 1523 1522 1522 1521 1521 1521 1520 1519
1557 1556 1555 1554 1554 1553 1552 1551 1551 1549 1548 1546 1545 1543 1541 1539 1538 1536 1535 1534 1533 1531 1530 1529 1529 1528 1527 1527 1526 1525 1525 1525 1524 1524 1523 1523 1523 1522 1522 1521 1521 1520 1520
1556 1555 1555 1554 1553 1552 1552 1551 1550 1549 1548 1547 1545 1544 1542 1541 1539 1537 1536 1535 1534 1533 1532 1530 1530 1529 1528 1527 1527 1526 1525 1525 1525 1524 1524 1524 1523 1523 1522 1522 1521 1521 1521
1554 1554 1553 1553 1552 1552 1551 1550 1550 1549 1548 1547 1546 1544 1543 1541 1540 1538 1537 1536 1535 1534 1533 1532 1531 1530 1529 1528 1527 1527 1526 1526 1525 1525 1525 1524 1524 1524 1523 1523 1522 1522 1521
1551 1551 1551 1551 1551 1550 1550 1549 1549 1548 1547 1546 1545 1544 1543 1541 1540 1538 1537 1536 1535 1534 1533 1533 1532 1531 1530 1529 1528 1527 1527 1526 1526 1525 1525 1525 1525 1524 1524 1523 1523 1522 1522
1548 1548 1548 1548 1548 1548 1548 1547 1547 1546 1546 1545 1544 1543 1542 1541 1539 1538 1537 1536 1535 1534 1534 1533 1532 1531 1531 1530 1529 1528 1527 1527 1527 1526 1526 1526 1525 1525 1525 1524 1524 1523 1523
1544 1544 1545 1545 1545 1545 1545 1545 1544 1544 1543 1543 1542 1542 1541 1539 1538 1537 1536 1536 1535 1534 1534 1533 1532 1532 1531 1530 1530 1529 1528 1528 1527 1527 1526 1526 1526 1525 1525 1525 1524 1524 1524